Torna al catalogo

SL-8 R/B

AttivoLEO
NORAD 9444·ROCKET BODY·🇷🇺 Russia

Lanciato Sep 29, 1976 da Plesetsk Cosmodrome

Loading…

Prossimi Passaggi (prossime 24 ore)

TLE

AggiornatoSource: Space-Track

Epoca: Sep 14, 2026, 12:55 UTC

1 09444U 76098B   26257.53866087  .00000102  00000-0  41145-4 0  9998
2 09444  74.0508 201.6475 0013967 230.2290 129.7635 14.39409797 54056

Traccia SL-8 R/B in tempo reale con AllMySat

Download on the App Store